Location: Altoona
(40.5167°N, 78.4000°W)
Time: 13:32:31
(UTC-05:00)

YAOGAN 6 - Pass Details

Date: 21 August 2017
Orbit: 467 x 509 km, 97.1° (Epoch: 24 November)

Event Time Altitude Azimuth Distance (km) Brightness Sun altitude
Exits shadow 21:23:35 25° 154° (SSE) 1,002 3.7 -15.0°
Maximum altitude 21:25:30 68° 77° (ENE) 514 2.4 -15.3°
Drops below altitude 10° 21:29:00 10° 354° (N) 1,640 5.8 -15.9°
Sets 21:31:04 0° 352° (N) 2,518 6.8 -16.2°
